This is the latest recevied weather packets stored in our database for station/object K5RWS. If no packets are shown the sender has not sent any weather packets the latest 10 day(s).
| Time | Temp. | Humidity | Pressure | Rain* | Wind** | Luminosity | Snow |
|---|---|---|---|---|---|---|---|
| 1777851980 | 22.22° C | 21% | 1016.6 hPa | 0 mm | - | 205 W/m² | - |
| 1777851678 | 22.22° C | 21% | 1016.6 hPa | 0 mm | - | 221 W/m² | - |
| 1777851374 | 22.22° C | 21% | 1016.6 hPa | 0 mm | - | 235 W/m² | - |
| 1777851070 | 22.78° C | 21% | 1016.4 hPa | 0 mm | - | 249 W/m² | - |
| 1777850767 | 22.22° C | 21% | 1016.6 hPa | 0 mm | - | 262 W/m² | - |
| 1777850464 | 22.78° C | 22% | 1016.7 hPa | 0 mm | - | 251 W/m² | - |
| 1777850162 | 22.78° C | 20% | 1016.8 hPa | 0 mm | - | 294 W/m² | - |
| 1777849859 | 22.78° C | 22% | 1016.8 hPa | 0 mm | - | 309 W/m² | - |
| 1777849555 | 22.22° C | 22% | 1016.9 hPa | 0 mm | - | 324 W/m² | - |
| 1777849253 | 22.22° C | 23% | 1017.2 hPa | 0 mm | - | 339 W/m² | - |
| 1777848949 | 22.78° C | 22% | 1017.2 hPa | 0 mm | - | 354 W/m² | - |
| 1777848644 | 22.78° C | 22% | 1017.2 hPa | 0 mm | - | 369 W/m² | - |
| 1777848342 | 21.67° C | 23% | 1017.2 hPa | 0 mm | - | 384 W/m² | - |
| 1777848040 | 21.67° C | 23% | 1017.5 hPa | 0 mm | - | 399 W/m² | - |
| 1777847738 | 21.67° C | 23% | 1017.6 hPa | 0 mm | - | 414 W/m² | - |
| 1777847433 | 21.67° C | 23% | 1017.4 hPa | 0 mm | - | 429 W/m² | - |
| 1777847132 | 21.67° C | 24% | 1017.9 hPa | 0 mm | - | 442 W/m² | - |
| 1777846829 | 22.22° C | 23% | 1017.9 hPa | 0 mm | - | 456 W/m² | - |
| 1777846527 | 22.78° C | 23% | 1017.9 hPa | 0 mm | - | 471 W/m² | - |
| 1777846224 | 21.67° C | 24% | 1018.2 hPa | 0 mm | - | 485 W/m² | - |
| 1777845920 | 21.67° C | 24% | 1018.3 hPa | 0 mm | - | 499 W/m² | - |
| 1777845617 | 22.22° C | 23% | 1018.4 hPa | 0 mm | - | 513 W/m² | - |
| 1777845315 | 21.67° C | 24% | 1018.3 hPa | 0 mm | - | 524 W/m² | - |
| 1777845011 | 21.11° C | 25% | 1018.4 hPa | 0 mm | - | 536 W/m² | - |
| 1777844710 | 21.11° C | 26% | 1018.7 hPa | 0 mm | - | 550 W/m² | - |
* Rain latest hour (hover to see other rain measurements)
** Current wind speed in m/s (hover to see current wind gust speed)